{"data":{"norad_id":66512,"intl_designator":"2025-263AD","name":"STARLINK-35366","alt_names":[],"object_type":"PAYLOAD","status":"ACTIVE","operator":null,"country":"US","launch_date":"2025-11-15","launch_site_code":"AFETR","launch_vehicle":null,"mission":null,"orbit_class":"UNKNOWN","rcs_meters":null,"size_class":null,"mass_kg":null,"dimensions":null,"purposes":["comms"],"wikipedia_slug":null,"has_3d_model":false,"image_url":null,"decayed_at":null,"tle_current":{"epoch":"2026-09-20T05:59:18.489120Z","epoch_age_seconds":111318,"freshness":"FRESH","line1":"1 66512U 25263AD  26263.24951955  .00008789  00000+0  32846-3 0  9994","line2":"2 66512  43.0001 331.9716 0001603 284.3141  75.7533 15.27585288 48657","mean_motion":15.27585288,"eccentricity":0.0001603,"inclination_deg":43.0001,"raan_deg":331.9716,"arg_perigee_deg":284.3141,"mean_anomaly_deg":75.7533,"bstar":0.00032846,"rev_number":4865,"period_min":94.266422393039,"perigee_km":481.933416318,"apogee_km":484.13310750397,"semimajor_km":6861.170261911,"source":"CELESTRAK","updated_at":"2026-09-21T09:00:35.924804Z"}}}